{"data":{"norad_id":64011,"epoch":"2026-09-20T13:11:54.777984Z","epoch_age_seconds":139334,"freshness":"FRESH","line1":"1 64011U 25101T   26263.54993956  .00014151  00000+0  52263-3 0  9992","line2":"2 64011  42.9998 337.7439 0001260 276.3963  83.6745 15.27589408 76854","mean_motion":15.27589408,"eccentricity":0.000126,"inclination_deg":42.9998,"raan_deg":337.7439,"arg_perigee_deg":276.3963,"mean_anomaly_deg":83.6745,"bstar":0.00052263,"rev_number":7685,"period_min":94.26616815086,"perigee_km":482.15641934914,"apogee_km":483.8854311463,"semimajor_km":6861.1579252477,"source":"CELESTRAK","updated_at":"2026-09-21T09:00:35.183203Z"}}